{"data":{"norad_id":58383,"intl_designator":"2023-178K","name":"STARLINK-30921","alt_names":[],"object_type":"PAYLOAD","status":"ACTIVE","operator":null,"country":"US","launch_date":"2023-11-20","launch_site_code":"AFWTR","launch_vehicle":null,"mission":null,"orbit_class":"UNKNOWN","rcs_meters":null,"size_class":null,"mass_kg":null,"dimensions":null,"purposes":["comms"],"wikipedia_slug":null,"has_3d_model":false,"image_url":null,"decayed_at":null,"tle_current":{"epoch":"2026-05-24T23:41:32.744256Z","epoch_age_seconds":85006,"freshness":"FRESH","line1":"1 58383U 23178K   26144.98718454  .00000858  00000+0  36541-4 0  9994","line2":"2 58383  53.1617   5.9209 0001195  84.1859 275.9280 15.34390384141568","mean_motion":15.34390384,"eccentricity":0.0001195,"inclination_deg":53.1617,"raan_deg":5.9209,"arg_perigee_deg":84.1859,"mean_anomaly_deg":275.928,"bstar":3.6541e-5,"rev_number":14156,"period_min":93.848346223734,"perigee_km":461.91433731072,"apogee_km":463.54930495897,"semimajor_km":6840.8688211348,"source":"CELESTRAK","updated_at":"2026-05-25T13:38:18.613569Z"}}}